DELTA 1 DEB, 7979

Orbit data source: Space-Track

DELTA 1 DEB, 7979 is space debris in SSO originally from a launch on Sun, 23 Jul 1972 UTC launched from the Air Force Western Test Range (AFWTR). Debris objects in space refer to the collection of defunct objects orbiting the Earth. Examples of debris include non-operational satellites, rocket bodies, and fragments generated from explosions, collisions, or faulty payload assembly.

Loading next visibility...
Identifier
7979, 1972-058DA
Orbit
SSO
Country
Flag of USUS
Related business
Manufacturer
Unknown
Mission
Spacecraft
Bus & Motor
Unknown
Mass
Unknown
Launch date (UTC)
1972-07-23 (53 years ago)
Launch vehicle
Unknown
Launch site
Air Force Western Test Range (AFWTR)
Object type
Payload
Rocket body
Debris
Shape & HBR
Unknown shape, 0.2 m
Radar Cross Section
Medium (>0.1 m² and <1 m²)

Expand to show TLE details & history
Last TLE update: 18 hours ago

TLE from 18 hours ago
0 DELTA 1 DEB
1  7979U 72058DA  25299.92851934  .00000515  00000-0  33591-3 0  9997
2  7979  97.8564   1.6110 0403831  79.8306  89.2036 13.71771999509358
Epoch: 2025-10-26T22:17Z
TLE epoch observation values (Epoch: 2025-10-26T22:17:04.070Z)
Latitude
6.20394°
Longitude
172.66136°
Altitude
1,003.386 km
Speed
7.347 km/s
True Right ascension
12h 09m 51s
True Declination
6° 10' 06"
Sunlit
Object was in daylight at epoch
Visualization orbit readout
Latitude
Unknown
Longitude
Unknown
Altitude
Unknown
Speed
Unknown
Apparent Right ascension
Unknown
Apparent Declination
Unknown
Sunlit
N/A
Visualization observer readout
Local Sidereal Time
11:14:46
Azimuth
Unknown
Elevation
Unknown
Doppler factor
Unknown
Orbital elements
Apogee altitude
1,287.959 km
Perigee altitude
692.831 km
Semi-major axis
7,368.532 km
Eccentricity
0.04038
Inclination
97.8564°
RAAN
1.611°
Arg. of periapsis
79.8306°
True anomaly
93.82893°
Mean anomaly
89.2036°
Eccentric anomaly
91.51657°
Mean motion
3.4314 °/min
Orbital period
104.91 mins
BSTAR
0.00033591
Loading maneuver chart data...
Computing Atmospheric mass density...
Loading historical data...
Loading historical data...
Loading historical data...
Loading historical data...
Loading historical data...
Loading historical data...
Loading historical data...

Documentation

Showing up to 5 results
|